| time (UTC) | temp C | wind direction | speed KPH | gust KPH | rain 1hr cm | rain 24hr cm | rain mn cm | humidity % | barometer mb |
| 20260506161142 | 23 | 180 | 4.8 | 6.4 | 0.00 | 0.00 | 0.00 | 4 | 996.3 |
| 20260506160641 | 23 | 180 | 4.8 | 8.0 | 0.00 | 0.00 | 0.00 | 4 | 996.2 |
| 20260506160141 | 23 | 180 | 4.8 | 9.7 | 0.00 | 0.00 | 0.00 | 4 | 996.3 |
| 20260506155640 | 24 | 180 | 4.8 | 14.5 | 0.00 | 0.00 | 0.00 | 4 | 996.1 |
| 20260506155139 | 25 | 180 | 6.4 | 11.3 | 0.00 | 0.00 | 0.00 | 4 | 996.0 |
| 20260506154638 | 23 | 180 | 4.8 | 9.7 | 0.00 | 0.00 | 0.00 | 4 | 996.2 |
| 20260506154138 | 23 | 180 | 0.0 | 4.8 | 0.00 | 0.00 | 0.00 | 4 | 996.5 |
| 20260506153637 | 22 | 180 | 4.8 | 6.4 | 0.00 | 0.00 | 0.00 | 4 | 996.7 |
| 20260506153136 | 21 | 180 | 4.8 | 9.7 | 0.00 | 0.00 | 0.00 | 5 | 997.1 |
| 20260506152636 | 21 | 180 | 8.0 | 16.1 | 0.00 | 0.00 | 0.00 | 5 | 997.5 |
| 20260506152135 | 21 | 180 | 11.3 | 20.9 | 0.00 | 0.00 | 0.00 | 5 | 997.6 |
| 20260506151634 | 22 | 180 | 11.3 | 30.6 | 0.00 | 0.00 | 0.00 | 5 | 997.2 |
| 20260506151133 | 23 | 180 | 11.3 | 29.0 | 0.00 | 0.00 | 0.00 | 4 | 997.1 |
| 20260506150633 | 24 | 180 | 4.8 | 14.5 | 0.00 | 0.00 | 0.00 | 3 | 996.8 |
| 20260506150132 | 25 | 180 | 4.8 | 9.7 | 0.00 | 0.00 | 0.00 | 3 | 996.6 |
| 20260506145631 | 26 | 180 | 4.8 | 8.0 | 0.00 | 0.00 | 0.00 | 3 | 996.3 |
| 20260506145130 | 26 | 180 | 0.0 | 0.0 | 0.00 | 0.00 | 0.00 | 3 | 996.4 |
| 20260506144630 | 25 | -1 | 4.8 | 4.8 | 0.00 | 0.00 | 0.00 | 3 | 996.4 |
| 20260506144129 | 25 | 180 | 4.8 | 0.0 | 0.00 | 0.00 | 0.00 | 3 | 996.4 |
| 20260506143628 | 25 | 180 | 6.4 | 9.7 | 0.00 | 0.00 | 0.00 | 3 | 996.5 |
| 20260506143128 | 26 | 180 | 6.4 | 9.7 | 0.00 | 0.00 | 0.00 | 3 | 996.4 |
| 20260506142627 | 26 | 180 | 0.0 | 0.0 | 0.00 | 0.00 | 0.00 | 3 | 996.3 |
| 20260506142126 | 25 | 180 | 8.0 | 12.9 | 0.00 | 0.00 | 0.00 | 3 | 996.7 |
| 20260506141625 | 25 | 180 | 0.0 | 4.8 | 0.00 | 0.00 | 0.00 | 3 | 996.5 |
| 20260506141125 | 25 | 180 | 4.8 | 12.9 | 0.00 | 0.00 | 0.00 | 3 | 996.7 |
| 20260506140624 | 26 | 180 | 6.4 | 11.3 | 0.00 | 0.00 | 0.00 | 3 | 996.5 |
| 20260506140123 | 26 | 180 | 6.4 | 9.7 | 0.00 | 0.00 | 0.00 | 3 | 996.4 |
| 20260506135623 | 26 | 180 | 4.8 | 9.7 | 0.00 | 0.00 | 0.00 | 3 | 996.5 |
| 20260506135122 | 27 | 180 | 6.4 | 9.7 | 0.00 | 0.00 | 0.00 | 3 | 996.2 |
| 20260506134621 | 27 | 180 | 4.8 | 11.3 | 0.00 | 0.00 | 0.00 | 3 | 996.2 |
| 20260506134120 | 26 | 180 | 4.8 | 9.7 | 0.00 | 0.00 | 0.00 | 3 | 996.5 |
| 20260506133620 | 25 | 180 | 6.4 | 12.9 | 0.00 | 0.00 | 0.00 | 3 | 996.7 |
| 20260506133119 | 26 | 180 | 11.3 | 19.3 | 0.00 | 0.00 | 0.00 | 3 | 996.7 |
| 20260506132618 | 27 | -1 | 8.0 | 16.1 | 0.00 | 0.00 | 0.00 | 3 | 996.1 |
| 20260506132118 | 26 | 180 | 8.0 | 14.5 | 0.00 | 0.00 | 0.00 | 3 | 996.6 |
| 20260506131617 | 25 | -1 | 6.4 | 11.3 | 0.00 | 0.00 | 0.00 | 3 | 996.8 |
| 20260506131116 | 26 | 180 | 9.7 | 16.1 | 0.00 | 0.00 | 0.00 | 3 | 996.7 |
| 20260506130615 | 25 | 180 | 8.0 | 16.1 | 0.00 | 0.00 | 0.00 | 3 | 997.0 |
| 20260506130115 | 25 | -1 | 8.0 | 16.1 | 0.00 | 0.00 | 0.00 | 3 | 997.2 |
| 20260506125614 | 25 | 180 | 9.7 | 20.9 | 0.00 | 0.00 | 0.00 | 3 | 997.3 |
| 20260506125113 | 27 | 180 | 11.3 | 27.4 | 0.00 | 0.00 | 0.00 | 3 | 996.7 |
| 20260506124612 | 27 | -1 | 8.0 | 19.3 | 0.00 | 0.00 | 0.00 | 3 | 996.6 |
| 20260506124112 | 26 | -1 | 9.7 | 17.7 | 0.00 | 0.00 | 0.00 | 3 | 997.0 |
| 20260506123611 | 26 | -1 | 11.3 | 22.5 | 0.00 | 0.00 | 0.00 | 3 | 997.2 |
| 20260506123110 | 25 | 180 | 8.0 | 17.7 | 0.00 | 0.00 | 0.00 | 4 | 997.5 |
| 20260506122610 | 25 | 157 | 6.4 | 11.3 | 0.00 | 0.00 | 0.00 | 4 | 997.5 |
| 20260506122109 | 25 | 180 | 9.7 | 25.7 | 0.00 | 0.00 | 0.00 | 3 | 997.7 |
| 20260506121608 | 26 | 180 | 8.0 | 17.7 | 0.00 | 0.00 | 0.00 | 3 | 997.3 |
| 20260506121107 | 26 | 180 | 9.7 | 22.5 | 0.00 | 0.00 | 0.00 | 3 | 997.1 |
| 20260506120607 | 24 | -1 | 14.5 | 25.7 | 0.00 | 0.00 | 0.00 | 4 | 997.8 |
| 20260506120106 | 25 | -1 | 11.3 | 22.5 | 0.00 | 0.00 | 0.00 | 4 | 997.3 |
| 20260506115605 | 25 | 180 | 9.7 | 24.1 | 0.00 | 0.00 | 0.00 | 3 | 997.3 |
| 20260506115104 | 25 | -1 | 12.9 | 27.4 | 0.00 | 0.00 | 0.00 | 4 | 997.7 |
| 20260506114604 | 24 | 180 | 9.7 | 30.6 | 0.00 | 0.00 | 0.00 | 4 | 997.7 |
| 20260506114103 | 24 | 180 | 11.3 | 22.5 | 0.00 | 0.00 | 0.00 | 4 | 997.8 |
| 20260506113602 | 24 | 180 | 12.9 | 22.5 | 0.00 | 0.00 | 0.00 | 4 | 997.8 |
| 20260506113102 | 24 | -1 | 9.7 | 24.1 | 0.00 | 0.00 | 0.00 | 4 | 997.9 |
| 20260506112601 | 23 | 180 | 11.3 | 30.6 | 0.00 | 0.00 | 0.00 | 4 | 997.9 |
| 20260506112100 | 23 | 180 | 11.3 | 24.1 | 0.00 | 0.00 | 0.00 | 4 | 997.9 |
| 20260506111559 | 23 | 180 | 12.9 | 24.1 | 0.00 | 0.00 | 0.00 | 4 | 998.1 |
| 20260506111059 | 22 | -1 | 12.9 | 29.0 | 0.00 | 0.00 | 0.00 | 4 | 998.3 |
| 20260506110057 | 22 | 180 | 16.1 | 30.6 | 0.00 | 0.00 | 0.00 | 4 | 998.4 |
| 20260506105556 | 23 | -1 | 12.9 | 27.4 | 0.00 | 0.00 | 0.00 | 4 | 998.3 |
| 20260506105056 | 22 | 180 | 12.9 | 27.4 | 0.00 | 0.00 | 0.00 | 4 | 998.3 |
| 20260506104555 | 22 | -1 | 12.9 | 24.1 | 0.00 | 0.00 | 0.00 | 4 | 998.5 |
| 20260506104054 | 22 | -1 | 16.1 | 29.0 | 0.00 | 0.00 | 0.00 | 4 | 998.7 |
| 20260506103554 | 22 | -1 | 11.3 | 22.5 | 0.00 | 0.00 | 0.00 | 4 | 998.4 |
| 20260506103053 | 22 | -1 | 12.9 | 22.5 | 0.00 | 0.00 | 0.00 | 5 | 998.6 |
| 20260506102552 | 22 | -1 | 9.7 | 20.9 | 0.00 | 0.00 | 0.00 | 5 | 998.8 |
| 20260506102051 | 21 | -1 | 11.3 | 29.0 | 0.00 | 0.00 | 0.00 | 5 | 998.9 |
| 20260506101551 | 21 | -1 | 11.3 | 22.5 | 0.00 | 0.00 | 0.00 | 5 | 999.1 |
| 20260506101050 | 21 | -1 | 12.9 | 30.6 | 0.00 | 0.00 | 0.00 | 5 | 999.2 |
| 20260506100549 | 21 | -1 | 14.5 | 25.7 | 0.00 | 0.00 | 0.00 | 5 | 999.1 |
| 20260506100049 | 21 | -1 | 14.5 | 32.2 | 0.00 | 0.00 | 0.00 | 5 | 998.9 |
| 20260506095548 | 20 | -1 | 19.3 | 32.2 | 0.00 | 0.00 | 0.00 | 5 | 999.1 |
| 20260506095047 | 21 | -1 | 14.5 | 27.4 | 0.00 | 0.00 | 0.00 | 5 | 998.9 |
| 20260506094546 | 21 | -1 | 12.9 | 25.7 | 0.00 | 0.00 | 0.00 | 5 | 999.0 |
| 20260506094046 | 20 | -1 | 17.7 | 35.4 | 0.00 | 0.00 | 0.00 | 5 | 999.1 |
| 20260506093545 | 21 | -1 | 16.1 | 37.0 | 0.00 | 0.00 | 0.00 | 5 | 998.8 |
| 20260506093044 | 22 | -1 | 14.5 | 27.4 | 0.00 | 0.00 | 0.00 | 5 | 998.6 |
| 20260506092543 | 22 | -1 | 12.9 | 29.0 | 0.00 | 0.00 | 0.00 | 5 | 998.4 |
| 20260506092043 | 23 | -1 | 9.7 | 25.7 | 0.00 | 0.00 | 0.00 | 5 | 998.1 |
| 20260506091542 | 22 | -1 | 11.3 | 27.4 | 0.00 | 0.00 | 0.00 | 5 | 998.4 |
| 20260506091041 | 21 | -1 | 11.3 | 25.7 | 0.00 | 0.00 | 0.00 | 5 | 998.5 |
| 20260506090541 | 21 | -1 | 11.3 | 25.7 | 0.00 | 0.00 | 0.00 | 5 | 998.5 |
| 20260506090040 | 20 | -1 | 9.7 | 24.1 | 0.00 | 0.00 | 0.00 | 5 | 999.0 |
| 20260506085539 | 20 | -1 | 12.9 | 25.7 | 0.00 | 0.00 | 0.00 | 5 | 999.0 |
| 20260506085038 | 20 | -1 | 12.9 | 27.4 | 0.00 | 0.00 | 0.00 | 5 | 999.0 |
| 20260506084538 | 20 | -1 | 19.3 | 32.2 | 0.00 | 0.00 | 0.00 | 5 | 999.1 |
| 20260506084038 | 20 | -1 | 11.3 | 27.4 | 0.00 | 0.00 | 0.00 | 5 | 998.8 |
| 20260506083536 | 19 | -1 | 16.1 | 30.6 | 0.00 | 0.00 | 0.00 | 6 | 999.2 |
| 20260506083036 | 19 | -1 | 17.7 | 33.8 | 0.00 | 0.00 | 0.00 | 6 | 999.2 |
| 20260506082535 | 19 | -1 | 14.5 | 33.8 | 0.00 | 0.00 | 0.00 | 6 | 999.0 |
| 20260506082034 | 19 | -1 | 16.1 | 37.0 | 0.00 | 0.00 | 0.00 | 6 | 999.1 |
| 20260506081533 | 20 | -1 | 12.9 | 29.0 | 0.00 | 0.00 | 0.00 | 6 | 998.7 |
| 20260506081033 | 20 | -1 | 12.9 | 24.1 | 0.00 | 0.00 | 0.00 | 6 | 998.8 |
| 20260506080532 | 18 | -1 | 14.5 | 27.4 | 0.00 | 0.00 | 0.00 | 6 | 999.1 |
| 20260506073528 | 18 | -1 | 12.9 | 29.0 | 0.00 | 0.00 | 0.00 | 6 | 999.2 |
| 20260506073027 | 17 | -1 | 12.9 | 27.4 | 0.00 | 0.00 | 0.00 | 7 | 999.4 |
| 20260506072526 | 17 | -1 | 19.3 | 32.2 | 0.00 | 0.00 | 0.00 | 7 | 999.6 |
| 20260506072025 | 18 | -1 | 16.1 | 29.0 | 0.00 | 0.00 | 0.00 | 7 | 999.3 |
| 20260506071525 | 18 | -1 | 12.9 | 30.6 | 0.00 | 0.00 | 0.00 | 6 | 999.2 |
| 20260506071024 | 18 | -1 | 9.7 | 29.0 | 0.00 | 0.00 | 0.00 | 6 | 999.1 |
| 20260506070523 | 17 | -1 | 11.3 | 24.1 | 0.00 | 0.00 | 0.00 | 7 | 999.4 |
| 20260506062017 | 17 | -1 | 8.0 | 16.1 | 0.00 | 0.00 | 0.00 | 7 | 999.1 |
| 20260506061516 | 16 | -1 | 11.3 | 25.7 | 0.00 | 0.00 | 0.00 | 8 | 999.4 |
| 20260506061015 | 16 | -1 | 12.9 | 20.9 | 0.00 | 0.00 | 0.00 | 7 | 999.5 |
| 20260506060515 | 16 | -1 | 9.7 | 22.5 | 0.00 | 0.00 | 0.00 | 7 | 999.5 |
| 20260506051007 | 15 | -1 | 8.0 | 17.7 | 0.00 | 0.00 | 0.00 | 8 | 999.7 |
| 20260506050506 | 16 | -1 | 9.7 | 22.5 | 0.00 | 0.00 | 0.00 | 8 | 999.5 |
| 20260506045004 | 14 | -1 | 11.3 | 19.3 | 0.00 | 0.00 | 0.00 | 8 | 1000.0 |
| 20260506044503 | 14 | -1 | 9.7 | 19.3 | 0.00 | 0.00 | 0.00 | 8 | 999.7 |
| 20260506044002 | 14 | -1 | 9.7 | 17.7 | 0.00 | 0.00 | 0.00 | 8 | 999.9 |
| 20260506043502 | 13 | -1 | 12.9 | 24.1 | 0.00 | 0.00 | 0.00 | 8 | 1000.0 |
| 20260506043001 | 14 | -1 | 11.3 | 27.4 | 0.00 | 0.00 | 0.00 | 8 | 1000.0 |
| 20260506042500 | 13 | -1 | 12.9 | 24.1 | 0.00 | 0.00 | 0.00 | 8 | 1000.1 |
| 20260506042000 | 13 | -1 | 12.9 | 25.7 | 0.00 | 0.00 | 0.00 | 8 | 1000.0 |
| 20260506041459 | 13 | -1 | 16.1 | 30.6 | 0.00 | 0.00 | 0.00 | 8 | 1000.0 |
| 20260506040958 | 13 | -1 | 11.3 | 25.7 | 0.00 | 0.00 | 0.00 | 8 | 999.9 |
| 20260506040457 | 13 | -1 | 14.5 | 33.8 | 0.00 | 0.00 | 0.00 | 8 | 1000.0 |
| 20260506035957 | 13 | -1 | 17.7 | 30.6 | 0.00 | 0.00 | 0.00 | 8 | 1000.0 |
| 20260506035456 | 12 | -1 | 12.9 | 25.7 | 0.00 | 0.00 | 0.00 | 9 | 999.9 |
| 20260506034955 | 12 | -1 | 12.9 | 24.1 | 0.00 | 0.00 | 0.00 | 9 | 1000.0 |
| 20260506034454 | 12 | -1 | 14.5 | 24.1 | 0.00 | 0.00 | 0.00 | 9 | 999.9 |
| 20260506033954 | 12 | -1 | 14.5 | 25.7 | 0.00 | 0.00 | 0.00 | 9 | 999.7 |
| 20260506033453 | 12 | -1 | 14.5 | 29.0 | 0.00 | 0.00 | 0.00 | 9 | 999.7 |
| 20260506032952 | 12 | -1 | 16.1 | 33.8 | 0.00 | 0.00 | 0.00 | 9 | 999.8 |
| 20260506032452 | 12 | -1 | 11.3 | 22.5 | 0.00 | 0.00 | 0.00 | 9 | 999.9 |
| 20260506031951 | 12 | -1 | 11.3 | 25.7 | 0.00 | 0.00 | 0.00 | 9 | 999.8 |
| 20260506031450 | 12 | -1 | 11.3 | 20.9 | 0.00 | 0.00 | 0.00 | 9 | 999.9 |
| 20260506030950 | 12 | -1 | 9.7 | 22.5 | 0.00 | 0.00 | 0.00 | 9 | 999.8 |
| 20260506030449 | 12 | -1 | 8.0 | 17.7 | 0.00 | 0.00 | 0.00 | 9 | 999.9 |
| 20260506025948 | 13 | -1 | 9.7 | 17.7 | 0.00 | 0.00 | 0.00 | 9 | 999.8 |
| 20260506025447 | 12 | -1 | 9.7 | 24.1 | 0.00 | 0.00 | 0.00 | 9 | 999.8 |
| 20260506024947 | 12 | -1 | 12.9 | 22.5 | 0.00 | 0.00 | 0.00 | 9 | 999.9 |
| 20260506024446 | 12 | -1 | 9.7 | 19.3 | 0.00 | 0.00 | 0.00 | 9 | 999.9 |
| 20260506023945 | 13 | -1 | 9.7 | 17.7 | 0.00 | 0.00 | 0.00 | 9 | 999.9 |
| 20260506023444 | 13 | -1 | 9.7 | 20.9 | 0.00 | 0.00 | 0.00 | 9 | 999.9 |
| 20260506022944 | 12 | -1 | 9.7 | 19.3 | 0.00 | 0.00 | 0.00 | 9 | 1000.0 |
| 20260506022443 | 13 | -1 | 11.3 | 22.5 | 0.00 | 0.00 | 0.00 | 9 | 999.9 |
| 20260506021942 | 13 | -1 | 11.3 | 22.5 | 0.00 | 0.00 | 0.00 | 9 | 1000.1 |
| 20260506021442 | 13 | -1 | 11.3 | 24.1 | 0.00 | 0.00 | 0.00 | 9 | 1000.1 |
| 20260506020941 | 13 | -1 | 12.9 | 24.1 | 0.00 | 0.00 | 0.00 | 9 | 1000.0 |
| 20260506020440 | 13 | -1 | 8.0 | 22.5 | 0.00 | 0.00 | 0.00 | 9 | 1000.0 |
| 20260506015939 | 13 | -1 | 9.7 | 20.9 | 0.00 | 0.00 | 0.00 | 9 | 1000.0 |
| 20260506015439 | 13 | -1 | 9.7 | 22.5 | 0.00 | 0.00 | 0.00 | 9 | 999.9 |
| 20260506014938 | 13 | -1 | 9.7 | 17.7 | 0.00 | 0.00 | 0.00 | 9 | 1000.0 |
| 20260506014437 | 13 | -1 | 9.7 | 20.9 | 0.00 | 0.00 | 0.00 | 9 | 999.9 |
| 20260506013937 | 13 | -1 | 8.0 | 16.1 | 0.00 | 0.00 | 0.00 | 9 | 999.7 |
| 20260506013436 | 13 | -1 | 8.0 | 16.1 | 0.00 | 0.00 | 0.00 | 9 | 1000.0 |
| 20260506012935 | 13 | -1 | 6.4 | 12.9 | 0.00 | 0.00 | 0.00 | 9 | 999.9 |
| 20260506012434 | 13 | -1 | 8.0 | 16.1 | 0.00 | 0.00 | 0.00 | 9 | 1000.0 |
| 20260506011934 | 13 | -1 | 9.7 | 17.7 | 0.00 | 0.00 | 0.00 | 9 | 999.9 |
| 20260506011433 | 13 | -1 | 8.0 | 16.1 | 0.00 | 0.00 | 0.00 | 9 | 999.9 |
| 20260506010932 | 13 | -1 | 9.7 | 17.7 | 0.00 | 0.00 | 0.00 | 9 | 999.9 |
| 20260506010432 | 13 | -1 | 8.0 | 16.1 | 0.00 | 0.00 | 0.00 | 9 | 999.8 |
| 20260506005931 | 13 | -1 | 8.0 | 19.3 | 0.00 | 0.00 | 0.00 | 9 | 999.8 |
| 20260506005430 | 13 | -1 | 8.0 | 16.1 | 0.00 | 0.00 | 0.00 | 9 | 999.7 |
| 20260506004929 | 13 | -1 | 9.7 | 19.3 | 0.00 | 0.00 | 0.00 | 9 | 999.8 |
| 20260506004429 | 13 | -1 | 9.7 | 19.3 | 0.00 | 0.00 | 0.00 | 9 | 999.8 |
| 20260506003928 | 13 | -1 | 8.0 | 19.3 | 0.00 | 0.00 | 0.00 | 9 | 999.8 |
| 20260506003427 | 13 | -1 | 11.3 | 22.5 | 0.00 | 0.00 | 0.00 | 9 | 999.8 |
| 20260506002927 | 14 | -1 | 6.4 | 20.9 | 0.00 | 0.00 | 0.00 | 9 | 999.7 |
| 20260506002426 | 13 | -1 | 11.3 | 22.5 | 0.00 | 0.00 | 0.00 | 9 | 999.9 |
| 20260506001925 | 13 | -1 | 12.9 | 22.5 | 0.00 | 0.00 | 0.00 | 9 | 1000.0 |
| 20260506001424 | 13 | -1 | 12.9 | 20.9 | 0.00 | 0.00 | 0.00 | 9 | 1000.0 |
| 20260506000924 | 13 | -1 | 11.3 | 19.3 | 0.00 | 0.00 | 0.00 | 9 | 999.9 |
| 20260506000423 | 13 | -1 | 12.9 | 22.5 | 0.00 | 0.00 | 0.00 | 9 | 1000.1 |
| 20260505235922 | 13 | -1 | 11.3 | 19.3 | 0.00 | 0.00 | 0.36 | 9 | 1000.1 |
| 20260505235422 | 13 | -1 | 14.5 | 22.5 | 0.00 | 0.00 | 0.36 | 9 | 1000.1 |
| 20260505234921 | 13 | -1 | 12.9 | 22.5 | 0.00 | 0.00 | 0.36 | 9 | 1000.0 |
| 20260505234420 | 13 | -1 | 14.5 | 29.0 | 0.00 | 0.00 | 0.36 | 9 | 1000.0 |
| 20260505233919 | 13 | -1 | 14.5 | 24.1 | 0.00 | 0.00 | 0.36 | 9 | 1000.1 |
| 20260505233419 | 13 | -1 | 12.9 | 25.7 | 0.00 | 0.00 | 0.36 | 9 | 1000.0 |
| 20260505232918 | 13 | -1 | 12.9 | 25.7 | 0.00 | 0.00 | 0.36 | 9 | 1000.1 |
| 20260505232417 | 13 | -1 | 11.3 | 22.5 | 0.00 | 0.00 | 0.36 | 9 | 1000.1 |
| 20260505231917 | 13 | -1 | 11.3 | 22.5 | 0.00 | 0.00 | 0.36 | 9 | 1000.0 |
| 20260505231416 | 14 | -1 | 9.7 | 19.3 | 0.00 | 0.00 | 0.36 | 9 | 999.8 |
| 20260505230915 | 14 | -1 | 4.8 | 11.3 | 0.00 | 0.00 | 0.33 | 9 | 999.7 |
| 20260505230415 | 14 | -1 | 4.8 | 9.7 | 0.00 | 0.00 | 0.33 | 9 | 999.6 |
| 20260505225914 | 14 | -1 | 4.8 | 8.0 | 0.00 | 0.00 | 0.33 | 9 | 999.6 |
| 20260505225413 | 14 | -1 | 4.8 | 6.4 | 0.00 | 0.00 | 0.33 | 9 | 999.7 |
| 20260505224912 | 15 | -1 | 4.8 | 6.4 | 0.00 | 0.00 | 0.33 | 9 | 999.7 |
| 20260505224412 | 15 | -1 | 3.2 | 0.0 | 0.00 | 0.00 | 0.33 | 9 | 999.7 |
| 20260505223911 | 15 | -1 | 0.0 | 0.0 | 0.00 | 0.00 | 0.33 | 9 | 999.6 |
| 20260505223410 | 15 | -1 | 0.0 | 0.0 | 0.00 | 0.00 | 0.33 | 10 | 999.6 |
| 20260505222910 | 14 | -1 | 0.0 | 0.0 | 0.00 | 0.00 | 0.33 | 10 | 999.7 |
| 20260505222409 | 14 | -1 | 0.0 | 0.0 | 0.00 | 0.00 | 0.33 | 9 | 999.8 |
| 20260505221908 | 13 | -1 | 4.8 | 9.7 | 0.00 | 0.00 | 0.33 | 9 | 1000.0 |
| 20260505221408 | 14 | -1 | 4.8 | 6.4 | 0.00 | 0.00 | 0.33 | 9 | 999.9 |
| 20260505220907 | 14 | -1 | 6.4 | 11.3 | 0.00 | 0.00 | 0.33 | 9 | 1000.0 |
| 20260505220406 | 15 | -1 | 4.8 | 6.4 | 0.00 | 0.00 | 0.33 | 9 | 999.9 |
| 20260505215905 | 15 | -1 | 0.0 | 0.0 | 0.00 | 0.00 | 0.33 | 10 | 999.7 |
| 20260505215405 | 15 | -1 | 0.0 | 0.0 | 0.00 | 0.00 | 0.33 | 10 | 999.9 |
| 20260505214904 | 15 | -1 | 0.0 | 0.0 | 0.00 | 0.00 | 0.33 | 9 | 999.8 |
| 20260505214403 | 14 | -1 | 4.8 | 6.4 | 0.00 | 0.00 | 0.33 | 9 | 999.9 |
| 20260505213902 | 13 | -1 | 6.4 | 6.4 | 0.00 | 0.00 | 0.33 | 10 | 1000.2 |
| 20260505213402 | 13 | -1 | 4.8 | 6.4 | 0.00 | 0.00 | 0.33 | 10 | 1000.4 |
| 20260505212901 | 12 | -1 | 4.8 | 6.4 | 0.00 | 0.00 | 0.33 | 9 | 1000.5 |
| 20260505212400 | 12 | -1 | 4.8 | 14.5 | 0.00 | 0.00 | 0.33 | 9 | 1000.6 |
| 20260505211900 | 12 | -1 | 11.3 | 25.7 | 0.00 | 0.00 | 0.30 | 10 | 1000.8 |
| 20260505211359 | 12 | -1 | 14.5 | 27.4 | 0.00 | 0.00 | 0.28 | 9 | 1000.9 |
| 20260505210858 | 13 | -1 | 8.0 | 20.9 | 0.00 | 0.00 | 0.28 | 10 | 1000.9 |
| 20260505210358 | 12 | -1 | 9.7 | 29.0 | 0.00 | 0.00 | 0.25 | 10 | 1000.9 |
| 20260505205857 | 12 | -1 | 12.9 | 29.0 | 0.00 | 0.00 | 0.23 | 9 | 1001.1 |
| 20260505205356 | 12 | -1 | 17.7 | 35.4 | 0.00 | 0.00 | 0.20 | 10 | 1001.2 |
| 20260505204856 | 12 | -1 | 17.7 | 33.8 | 0.00 | 0.00 | 0.20 | 9 | 1001.1 |
| 20260505204355 | 12 | -1 | 19.3 | 38.6 | 0.00 | 0.00 | 0.18 | 9 | 1001.1 |
| 20260505203854 | 12 | -1 | 22.5 | 40.2 | 0.00 | 0.00 | 0.15 | 9 | 1000.9 |
| 20260505203353 | 13 | -1 | 19.3 | 33.8 | 0.00 | 0.00 | 0.13 | 9 | 1000.4 |
| 20260505202852 | 14 | -1 | 19.3 | 37.0 | 0.00 | 0.00 | 0.10 | 9 | 1000.1 |
| 20260505202352 | 15 | -1 | 19.3 | 40.2 | 0.00 | 0.00 | 0.08 | 8 | 999.9 |
| 20260505201851 | 17 | -1 | 19.3 | 37.0 | 0.00 | 0.00 | 0.05 | 8 | 999.4 |
| 20260505201350 | 17 | -1 | 14.5 | 30.6 | 0.00 | 0.00 | 0.03 | 7 | 999.3 |
| 20260505200849 | 20 | -1 | 8.0 | 17.7 | 0.00 | 0.00 | 0.00 | 6 | 998.5 |
| 20260505200349 | 21 | -1 | 6.4 | 11.3 | 0.00 | 0.00 | 0.00 | 6 | 998.0 |
| 20260505195848 | 22 | -1 | 6.4 | 11.3 | 0.00 | 0.00 | 0.00 | 5 | 997.7 |
| 20260505195347 | 22 | -1 | 4.8 | 6.4 | 0.00 | 0.00 | 0.00 | 5 | 997.4 |
| 20260505194846 | 22 | -1 | 4.8 | 6.4 | 0.00 | 0.00 | 0.00 | 5 | 997.3 |
| 20260505194345 | 21 | -1 | 0.0 | 0.0 | 0.00 | 0.00 | 0.00 | 5 | 997.1 |
| 20260505193845 | 20 | -1 | 0.0 | 0.0 | 0.00 | 0.00 | 0.00 | 6 | 997.2 |
| 20260505193344 | 20 | -1 | 0.0 | 0.0 | 0.00 | 0.00 | 0.00 | 6 | 997.2 |
| 20260505192843 | 20 | -1 | 0.0 | 0.0 | 0.00 | 0.00 | 0.00 | 6 | 997.1 |
| 20260505192342 | 20 | -1 | 0.0 | 0.0 | 0.00 | 0.00 | 0.00 | 6 | 997.1 |
| 20260505191842 | 20 | -1 | 0.0 | 0.0 | 0.00 | 0.00 | 0.00 | 6 | 997.2 |
| 20260505191341 | 20 | -1 | 4.8 | 8.0 | 0.00 | 0.00 | 0.00 | 6 | 997.0 |
| 20260505190840 | 20 | -1 | 4.8 | 11.3 | 0.00 | 0.00 | 0.00 | 6 | 997.0 |
| 20260505190340 | 20 | -1 | 4.8 | 8.0 | 0.00 | 0.00 | 0.00 | 6 | 997.0 |
| 20260505185839 | 20 | -1 | 6.4 | 12.9 | 0.00 | 0.00 | 0.00 | 6 | 997.0 |
| 20260505185338 | 20 | -1 | 6.4 | 11.3 | 0.00 | 0.00 | 0.00 | 6 | 997.0 |
| 20260505184839 | 20 | -1 | 6.4 | 16.1 | 0.00 | 0.00 | 0.00 | 6 | 996.9 |
| 20260505184337 | 20 | -1 | 4.8 | 11.3 | 0.00 | 0.00 | 0.00 | 6 | 996.8 |
| 20260505183836 | 20 | -1 | 8.0 | 20.9 | 0.00 | 0.00 | 0.00 | 6 | 996.9 |
| 20260505183335 | 20 | -1 | 6.4 | 12.9 | 0.00 | 0.00 | 0.00 | 6 | 997.0 |
| 20260505182834 | 21 | -1 | 6.4 | 17.7 | 0.00 | 0.00 | 0.00 | 6 | 996.8 |
| 20260505182334 | 21 | -1 | 6.4 | 11.3 | 0.00 | 0.00 | 0.00 | 5 | 996.8 |
| 20260505181833 | 20 | -1 | 4.8 | 12.9 | 0.00 | 0.00 | 0.00 | 6 | 996.9 |
| 20260505181332 | 21 | -1 | 6.4 | 12.9 | 0.00 | 0.00 | 0.00 | 5 | 996.9 |
| 20260505180831 | 20 | -1 | 6.4 | 17.7 | 0.00 | 0.00 | 0.00 | 6 | 996.9 |
| 20260505180331 | 21 | -1 | 9.7 | 24.1 | 0.00 | 0.00 | 0.00 | 5 | 996.7 |
| 20260505175830 | 21 | -1 | 8.0 | 17.7 | 0.00 | 0.00 | 0.00 | 5 | 996.6 |
| 20260505175329 | 21 | -1 | 9.7 | 20.9 | 0.00 | 0.00 | 0.00 | 5 | 996.8 |
| 20260505174828 | 21 | -1 | 8.0 | 24.1 | 0.00 | 0.00 | 0.00 | 5 | 996.9 |
| 20260505174328 | 21 | -1 | 8.0 | 25.7 | 0.00 | 0.00 | 0.00 | 5 | 996.6 |
| 20260505173827 | 21 | -1 | 8.0 | 19.3 | 0.00 | 0.00 | 0.00 | 5 | 996.8 |
| 20260505173326 | 21 | -1 | 8.0 | 22.5 | 0.00 | 0.00 | 0.00 | 5 | 996.7 |
| 20260505172825 | 21 | -1 | 9.7 | 24.1 | 0.00 | 0.00 | 0.00 | 5 | 996.8 |
| 20260505172325 | 21 | -1 | 6.4 | 20.9 | 0.00 | 0.00 | 0.00 | 5 | 996.7 |
| 20260505171824 | 21 | -1 | 8.0 | 19.3 | 0.00 | 0.00 | 0.00 | 5 | 996.8 |
| 20260505171323 | 22 | -1 | 6.4 | 16.1 | 0.00 | 0.00 | 0.00 | 5 | 996.6 |
| 20260505170822 | 22 | -1 | 8.0 | 16.1 | 0.00 | 0.00 | 0.00 | 5 | 996.7 |
| 20260505170322 | 22 | -1 | 8.0 | 22.5 | 0.00 | 0.00 | 0.00 | 5 | 996.6 |
| 20260505165821 | 22 | -1 | 9.7 | 22.5 | 0.00 | 0.00 | 0.00 | 5 | 996.5 |
| 20260505165320 | 22 | -1 | 9.7 | 25.7 | 0.00 | 0.00 | 0.00 | 5 | 996.6 |
| 20260505164819 | 22 | -1 | 9.7 | 19.3 | 0.00 | 0.00 | 0.00 | 5 | 996.5 |
| 20260505164319 | 22 | -1 | 8.0 | 22.5 | 0.00 | 0.00 | 0.00 | 5 | 996.6 |
| 20260505163818 | 22 | -1 | 8.0 | 27.4 | 0.00 | 0.00 | 0.00 | 5 | 996.5 |
| 20260505163317 | 22 | -1 | 6.4 | 17.7 | 0.00 | 0.00 | 0.00 | 5 | 996.6 |
| 20260505162817 | 23 | -1 | 8.0 | 16.1 | 0.00 | 0.00 | 0.00 | 4 | 996.3 |
| 20260505162316 | 25 | -1 | 6.4 | 16.1 | 0.00 | 0.00 | 0.00 | 4 | 996.0 |
| 20260505161815 | 24 | -1 | 6.4 | 14.5 | 0.00 | 0.00 | 0.00 | 4 | 996.1 |